Regional Weather Roundup
Issued by NWS

Home | Current Version | Previous Version | Text Only | Print | Product List | Glossary On
Versions: 1 2 3 4 5 6 7 8 9 10 11 12 13 14 15 16 17 18 19 20 21 22 23 24 25 26 27 28 29 30 31 32 33 34 35 36 37 38 39 40 41 42 43 44 45 46 47 48 49 50
000
ASUS44 KOUN 021510
RWROK

WEATHER ROUNDUP FOR OKLAHOMA
NATIONAL WEATHER SERVICE NORMAN OK
1000 AM CDT THU OCT 02 2014

NOTE: "FAIR" INDICATES FEW OR NO CLOUDS BELOW 12,000 FEET WITH NO
      SIGNIFICANT WEATHER AND/OR OBSTRUCTIONS TO VISIBILITY.

OKZ001>007-009>012-014-015-017-021600-
NORTHWEST OKLAHOMA AND THE PANHANDLE

CITY           SKY/WX    TMP DP  RH WIND       PRES   REMARKS
GAGE           PTSUNNY   61  51  70 N20G28    29.91R
ENID/WOODRING  PTSUNNY   72  64  78 NW21G31   29.76R
$$

OKZ016-021>023-033>039-044-045-021600-
SOUTHWEST OKLAHOMA

CITY           SKY/WX    TMP DP  RH WIND       PRES   REMARKS
LAWTON/REGL    FAIR      79  65  62 W9        29.78R
LAWTON/FT SILL FAIR      78  62  57 W8        29.78R
FREDERICK      FAIR      71  56  58 N16       29.77R
CLINTON        FAIR      69  51  52 N28G41    29.84S
HOBART         FAIR      69  54  58 N22G30    29.83R
ALTUS AFB      SUNNY     70  54  57 N21G28    29.81R
$$

OKZ018>020-024>031-021600-
CENTRAL OKLAHOMA

CITY           SKY/WX    TMP DP  RH WIND       PRES   REMARKS
OKLAHOMA CITY  PTSUNNY   76  68  76 S12       29.77R
OKC/WILEY POST PTSUNNY   78  67  68 SW14      29.77R
OKC/TINKER AFB PTSUNNY   75  69  80 S20G25    29.77R
STILLWATER     FAIR      78  68  71 SW15G25   29.73S
GUTHRIE        FAIR      79  67  66 W13       29.75R
$$

OKZ008-013-054>072-021600-
NORTHEAST OKLAHOMA

CITY           SKY/WX    TMP DP  RH WIND       PRES   REMARKS
TULSA          PTSUNNY   76  71  85 S20G25    29.72S
TULSA/JONES    FAIR      75  70  84 S9        29.74S
PONCA CITY     CLOUDY    76  67  73 VRB5      29.73R
BARTLESVILLE   PTSUNNY   72  71  97 S8G16     29.74S
MUSKOGEE       LGT RAIN  73  71  93 S7        29.81R
$$

OKZ032-040>043-046>053-073>077-021600-
SOUTH CENTRAL/SOUTHEAST OKLAHOMA

CITY           SKY/WX    TMP DP  RH WIND       PRES   REMARKS
ARDMORE/DWNTWN FAIR      77  70  78 S8        29.79F
MCALESTER      FAIR      81  71  71 S12G22    29.81S
$$



USA.gov is the U.S. government's official web portal to all federal, state and local government web resources and services.